When you browse on this site, cookies collect data to enhance your experience and personalize the content and advertising you see.
Visit our Privacy Policy to learn more. By continuing to use the site, you agree to this use of cookies and data.
  • In Czech Republic
  • List of Countries
  • For 7 days
  • Water Temperature
  • Weather Map
  • Weather Widgets
  • user-avatar
    Login

    Hourly Weather Cayenne

    Today, 20 September, Friday

    Time Temperature Precipitation Wind Pressure Humidity
    00:00 +26°C° 0 mm 5 mps 757 mmHg 88%
    01:00 +26°C° 0 mm 4 mps 757 mmHg 90%
    02:00 +26°C° 0 mm 4 mps 756 mmHg 92%
    03:00 +25°C° 0 mm 4 mps 756 mmHg 94%
    04:00 +25°C° 0 mm 3 mps 756 mmHg 94%
    05:00 +25°C° 0 mm 3 mps 756 mmHg 95%
    06:00 +25°C° 0 mm 3 mps 756 mmHg 95%
    07:00 +27°C° 0 mm 3 mps 757 mmHg 86%
    08:00 +29°C° 0 mm 3 mps 757 mmHg 78%
    09:00 +32°C° 0 mm 4 mps 758 mmHg 69%
    10:00 +33°C° 0 mm 4 mps 757 mmHg 64%
    11:00 +34°C° 0 mm 4 mps 757 mmHg 59%
    12:00 +35°C° 0 mm 4 mps 757 mmHg 54%
    13:00 +35°C° 0 mm 4 mps 757 mmHg 55%
    14:00 +35°C° 0 mm 4 mps 756 mmHg 56%
    15:00 +35°C° 0 mm 4 mps 755 mmHg 57%
    16:00 +33°C° 0.1 mm 4 mps 756 mmHg 63%
    17:00 +32°C° 0.1 mm 4 mps 756 mmHg 69%
    18:00 +30°C° 0.1 mm 4 mps 756 mmHg 74%
    19:00 +29°C° 0.3 mm 4 mps 756 mmHg 80%
    20:00 +28°C° 0.3 mm 4 mps 757 mmHg 85%
    21:00 +27°C° 0.3 mm 4 mps 757 mmHg 90%
    22:00 +27°C° 2.8 mm 4 mps 757 mmHg 92%
    23:00 +27°C° 2.8 mm 4 mps 757 mmHg 94%

    Tomorrow, 21 September, Saturday

    Time Temperature Precipitation Wind Pressure Humidity
    00:00 +26°C° 2.8 mm 5 mps 758 mmHg 96%
    01:00 +26°C° 1.2 mm 4 mps 757 mmHg 96%
    02:00 +26°C° 1.2 mm 4 mps 757 mmHg 96%
    03:00 +26°C° 1.2 mm 4 mps 756 mmHg 96%
    04:00 +26°C° 0 mm 4 mps 756 mmHg 96%
    05:00 +26°C° 0 mm 4 mps 756 mmHg 96%
    06:00 +26°C° 0 mm 4 mps 756 mmHg 96%
    07:00 +27°C° 0 mm 4 mps 757 mmHg 93%
    08:00 +28°C° 0 mm 4 mps 757 mmHg 90%
    09:00 +29°C° 0 mm 4 mps 757 mmHg 87%
    10:00 +32°C° 0 mm 4 mps 757 mmHg 79%
    11:00 +33°C° 0 mm 4 mps 757 mmHg 70%
    12:00 +34°C° 0 mm 5 mps 757 mmHg 62%
    13:00 +34°C° 0.1 mm 5 mps 756 mmHg 64%
    14:00 +34°C° 0.1 mm 5 mps 756 mmHg 65%
    15:00 +34°C° 0.1 mm 4 mps 755 mmHg 67%
    16:00 +32°C° 0.1 mm 5 mps 756 mmHg 72%
    17:00 +30°C° 0.1 mm 5 mps 756 mmHg 77%
    18:00 +29°C° 0.1 mm 5 mps 756 mmHg 82%
    19:00 +29°C° 0.1 mm 5 mps 756 mmHg 85%
    20:00 +28°C° 0.1 mm 5 mps 757 mmHg 87%
    21:00 +27°C° 0.1 mm 5 mps 757 mmHg 90%
    22:00 +27°C° 0.1 mm 4 mps 757 mmHg 90%
    23:00 +27°C° 0.1 mm 4 mps 757 mmHg 91%

    Day after tomorrow, 22 September, Sunday

    Time Temperature Precipitation Wind Pressure Humidity
    00:00 +27°C° 0.1 mm 4 mps 757 mmHg 91%
    01:00 +27°C° 0 mm 5 mps 757 mmHg 91%
    02:00 +27°C° 0 mm 5 mps 757 mmHg 90%
    03:00 +27°C° 0 mm 5 mps 756 mmHg 90%
    04:00 +27°C° 0 mm 4 mps 756 mmHg 89%
    05:00 +27°C° 0 mm 4 mps 757 mmHg 89%
    06:00 +27°C° 0 mm 4 mps 757 mmHg 89%
    07:00 +28°C° 0 mm 4 mps 757 mmHg 82%
    08:00 +30°C° 0 mm 5 mps 758 mmHg 75%
    09:00 +32°C° 0 mm 5 mps 758 mmHg 68%
    10:00 +33°C° 0 mm 5 mps 758 mmHg 64%
    11:00 +34°C° 0 mm 5 mps 757 mmHg 60%
    12:00 +35°C° 0 mm 4 mps 757 mmHg 56%
    13:00 +35°C° 0 mm 4 mps 757 mmHg 56%
    14:00 +35°C° 0 mm 4 mps 756 mmHg 56%
    15:00 +35°C° 0 mm 4 mps 756 mmHg 55%
    16:00 +33°C° 0 mm 4 mps 756 mmHg 62%
    17:00 +32°C° 0 mm 4 mps 756 mmHg 69%
    18:00 +30°C° 0 mm 4 mps 756 mmHg 76%
    19:00 +29°C° 0 mm 4 mps 756 mmHg 80%
    20:00 +28°C° 0 mm 4 mps 757 mmHg 83%
    21:00 +28°C° 0 mm 4 mps 757 mmHg 87%
    22:00 +28°C° 0 mm 4 mps 757 mmHg 87%
    23:00 +27°C° 0 mm 4 mps 757 mmHg 88%

    23 September, Monday

    Time Temperature Precipitation Wind Pressure Humidity
    00:00 +27°C° 0 mm 4 mps 757 mmHg 88%
    01:00 +27°C° 0 mm 4 mps 757 mmHg 89%
    02:00 +27°C° 0 mm 4 mps 756 mmHg 89%
    03:00 +27°C° 0 mm 4 mps 756 mmHg 90%
    04:00 +27°C° 0 mm 3 mps 756 mmHg 91%
    05:00 +26°C° 0 mm 3 mps 757 mmHg 93%
    06:00 +26°C° 0 mm 3 mps 757 mmHg 94%
    07:00 +28°C° 0 mm 3 mps 757 mmHg 85%
    08:00 +30°C° 0 mm 3 mps 758 mmHg 75%
    09:00 +33°C° 0 mm 3 mps 758 mmHg 65%
    10:00 +33°C° 0 mm 3 mps 758 mmHg 62%
    11:00 +34°C° 0 mm 3 mps 758 mmHg 58%
    12:00 +35°C° 0 mm 4 mps 757 mmHg 54%
    13:00 +35°C° 0 mm 3 mps 757 mmHg 54%
    14:00 +35°C° 0 mm 3 mps 756 mmHg 54%
    15:00 +35°C° 0 mm 3 mps 756 mmHg 54%
    16:00 +34°C° 0 mm 3 mps 756 mmHg 61%
    17:00 +31°C° 0 mm 3 mps 756 mmHg 69%
    18:00 +30°C° 0 mm 3 mps 756 mmHg 77%
    19:00 +29°C° 0 mm 3 mps 756 mmHg 81%
    20:00 +28°C° 0 mm 4 mps 757 mmHg 85%
    21:00 +28°C° 0 mm 4 mps 757 mmHg 89%
    22:00 +27°C° 0 mm 4 mps 757 mmHg 90%
    23:00 +27°C° 0 mm 4 mps 757 mmHg 90%

    24 September, Tuesday

    Time Temperature Precipitation Wind Pressure Humidity
    00:00 +27°C° 0 mm 4 mps 757 mmHg 90%
    01:00 +27°C° 0 mm 3 mps 757 mmHg 91%
    02:00 +27°C° 0 mm 3 mps 756 mmHg 92%
    03:00 +27°C° 0 mm 3 mps 756 mmHg 93%
    04:00 +26°C° 0 mm 3 mps 756 mmHg 94%
    05:00 +26°C° 0 mm 3 mps 756 mmHg 95%
    06:00 +26°C° 0 mm 3 mps 757 mmHg 96%
    07:00 +27°C° 0 mm 3 mps 757 mmHg 88%
    08:00 +29°C° 0 mm 3 mps 758 mmHg 79%
    09:00 +31°C° 0 mm 3 mps 758 mmHg 70%
    10:00 +33°C° 0 mm 3 mps 758 mmHg 65%
    11:00 +34°C° 0 mm 3 mps 758 mmHg 59%
    12:00 +35°C° 0 mm 3 mps 757 mmHg 54%
    13:00 +35°C° 0 mm 3 mps 757 mmHg 54%
    14:00 +35°C° 0 mm 3 mps 756 mmHg 54%
    15:00 +35°C° 0 mm 3 mps 756 mmHg 53%
    16:00 +34°C° 0 mm 3 mps 756 mmHg 61%
    17:00 +31°C° 0 mm 3 mps 756 mmHg 69%
    18:00 +29°C° 0 mm 3 mps 756 mmHg 77%
    19:00 +29°C° 0.1 mm 3 mps 757 mmHg 82%
    20:00 +28°C° 0.1 mm 3 mps 757 mmHg 86%
    21:00 +27°C° 0.1 mm 3 mps 758 mmHg 91%
    22:00 +27°C° 0.7 mm 3 mps 758 mmHg 93%
    23:00 +26°C° 0.7 mm 3 mps 758 mmHg 95%

    25 September, Wednesday

    Time Temperature Precipitation Wind Pressure Humidity
    00:00 +26°C° 0.7 mm 3 mps 758 mmHg 97%
    01:00 +26°C° 0.2 mm 3 mps 757 mmHg 97%
    02:00 +26°C° 0.2 mm 3 mps 757 mmHg 96%
    03:00 +26°C° 0.2 mm 3 mps 756 mmHg 96%
    04:00 +26°C° 0 mm 3 mps 757 mmHg 96%
    05:00 +26°C° 0 mm 3 mps 757 mmHg 97%
    06:00 +26°C° 0 mm 3 mps 757 mmHg 97%
    07:00 +27°C° 0 mm 3 mps 758 mmHg 91%
    08:00 +29°C° 0 mm 3 mps 758 mmHg 84%
    09:00 +30°C° 0 mm 3 mps 758 mmHg 78%
    10:00 +31°C° 0 mm 3 mps 758 mmHg 70%
    11:00 +34°C° 0 mm 3 mps 758 mmHg 61%
    12:00 +35°C° 0 mm 3 mps 757 mmHg 53%
    13:00 +35°C° 0 mm 3 mps 757 mmHg 55%
    14:00 +34°C° 0 mm 3 mps 756 mmHg 57%
    15:00 +34°C° 0 mm 3 mps 756 mmHg 59%
    16:00 +33°C° 0 mm 4 mps 756 mmHg 66%
    17:00 +30°C° 0 mm 4 mps 756 mmHg 72%
    18:00 +29°C° 0 mm 4 mps 756 mmHg 78%
    19:00 +28°C° 0 mm 4 mps 756 mmHg 81%
    20:00 +28°C° 0 mm 4 mps 756 mmHg 83%
    21:00 +27°C° 0 mm 4 mps 757 mmHg 86%
    22:00 +27°C° 0 mm 3 mps 757 mmHg 88%
    23:00 +27°C° 0 mm 3 mps 757 mmHg 90%
    Show more